Location: Mactaquac Provincial Park
(45.9573°N, 66.8897°W)
Time: 19:01:46
(UTC-03:00)

CENTAUR R/B - Visible Passes

Search period start: 23 July 2014 00:00
Search period end: 02 August 2014 00:00
Orbit: 899 x 1290 km, 63.5° (Epoch: 20 July)

Date Brightness Start Highest point End Pass type
(mag) Time Alt. Az. Time Alt. Az. Time Alt. Az.
23 Jul 3.6 01:31:28 10° NW 01:38:45 53° NE 01:46:29 10° ESE visible
23 Jul 3.2 03:22:19 10° NW 03:29:34 48° WSW 03:34:33 22° S visible
23 Jul 5.1 22:52:13 10° NW 22:57:19 20° N 23:02:43 10° NE visible
24 Jul 4.1 00:43:23 10° NNW 00:50:14 39° NE 00:57:31 10° ESE visible
24 Jul 2.9 02:34:00 10° NW 02:41:33 72° WSW 02:46:18 27° SSE visible
24 Jul 4.3 04:26:41 10° WNW 04:31:14 17° WSW 04:33:23 15° SW visible
24 Jul 5.1 22:03:27 10° NW 22:08:18 19° N 22:13:26 10° NE visible
24 Jul 4.5 23:55:15 10° NNW 00:01:33 30° NNE 00:08:15 10° E visible
25 Jul 3.0 01:45:50 10° NW 01:53:24 80° NE 01:58:26 26° SE visible
25 Jul 3.9 03:37:21 10° WNW 03:43:35 28° WSW 03:45:32 25° SW visible
25 Jul 4.8 23:07:01 10° NNW 23:12:44 24° NNE 23:18:48 10° ENE visible
26 Jul 3.5 00:57:43 10° NW 01:05:05 57° NE 01:10:47 20° ESE visible
26 Jul 3.4 02:48:40 10° NW 02:55:46 43° WSW 02:57:54 36° SSW visible
26 Jul 4.9 22:18:35 10° NW 22:23:48 21° NNE 22:29:18 10° ENE visible
27 Jul 3.9 00:09:38 10° NNW 00:16:36 42° NE 00:23:19 13° ESE visible
27 Jul 3.0 02:00:18 10° NW 02:07:48 65° WSW 02:10:26 44° S visible
27 Jul 4.5 03:53:29 10° WNW 03:57:21 15° WSW 03:57:34 15° WSW visible
27 Jul 5.0 21:29:54 10° NW 21:34:47 19° N 21:39:57 10° NE visible
27 Jul 4.3 23:21:31 10° NNW 23:27:58 32° NNE 23:34:49 10° E visible
28 Jul 2.9 01:12:06 10° NW 01:19:41 87° NE 01:23:06 39° SE visible
28 Jul 4.0 03:03:49 10° WNW 03:09:45 25° WSW 03:10:14 25° WSW visible
28 Jul 4.6 22:33:19 10° NNW 22:39:11 25° NNE 22:45:24 10° ENE visible
29 Jul 3.3 00:23:59 10° NW 00:31:25 62° NE 00:35:53 28° ESE visible
29 Jul 3.5 02:15:02 10° NW 02:21:58 39° WSW 02:23:01 37° SW visible
29 Jul 4.8 21:44:57 10° NW 21:50:16 21° NNE 21:55:54 10° ENE visible
29 Jul 3.8 23:35:54 10° NNW 23:42:58 45° NE 23:48:44 17° ESE visible
30 Jul 3.1 01:26:36 10° NW 01:34:03 59° WSW 01:35:53 49° SSW visible
30 Jul 4.7 03:20:30 10° W 03:23:01 12° W 03:23:01 12° W visible
30 Jul 4.2 22:47:48 10° NNW 22:54:23 34° NNE 23:01:22 10° E visible
31 Jul 2.9 00:38:22 10° NW 00:45:58 86° SW 00:48:49 45° SSE visible
31 Jul 4.3 02:30:21 10° WNW 02:35:54 22° WSW 02:35:58 22° WSW visible
31 Jul 4.5 21:59:37 10° NNW 22:05:37 27° NNE 22:12:00 10° E visible
31 Jul 3.2 23:50:14 10° NW 23:57:43 67° NE 00:01:48 31° ESE visible
01 Aug 3.7 01:41:25 10° NW 01:48:10 35° WSW 01:48:58 34° SW visible
01 Aug 3.6 23:02:09 10° NNW 23:09:20 48° NE 23:14:52 19° ESE visible
